[[{"header":{"parameterUnit":"m.s-1","parameterCategory":1,"la1":30.2991,"la2":30.254,"lo1":-89.0895,"lo2":-89.0444,"dy":0.0017,"dx":0.0017,"nx":28,"ny":28,"refTime":"2025-06-22T03:00:00:Z","depth":0,"parameterNumber":2,"parameterNumberName":"U-component_of_WINDS"},"data":[0,0,0,0,0,0,0,0,0,0,0,0,0,0,0,0,0,0,0,0,0,0,0,0,0,0,0,0,0,0,0,0,0,0,0,0,0,0,0,0,0,0,0,0,0,0,0,0,0,0,0,0,0,0,0,0,0,0,-0.7421,-0.742,0,-0.7362,-0.7361,-0.7361,-0.73,-0.7299,-0.7299,-0.7298,-0.7239,-0.7238,-0.7237,0,0,0,0,0,0,0,0,0,0,0,0,0,-0.7484,-0.7483,-0.7421,-0.742,-0.742,-0.7362,-0.7361,-0.7361,-0.73,-0.7299,-0.7298,-0.7297,-0.7239,-0.7238,-0.7237,0,0,0,0,0,0,0,0,0,0,0,0,0,-0.7444,-0.7483,-0.7421,-0.7383,-0.7379,-0.7362,-0.7361,-0.736,-0.7301,-0.7299,-0.7298,-0.7297,-0.7239,-0.7238,-0.7237,-0.7254,0,0,-0.7233,-0.7233,0,0,0,0,0,0,0,0,-0.7446,-0.7442,-0.7389,-0.7385,-0.7381,-0.7337,-0.7362,-0.7325,-0.7301,-0.733,-0.7298,-0.7296,-0.7272,-0.7268,-0.726,-0.7251,-0.7249,-0.7233,-0.7232,-0.7232,-0.7231,0,0,0,0,0,0,0,-0.7449,-0.7444,-0.7398,-0.7388,-0.7383,-0.7369,-0.7362,-0.7354,-0.7309,-0.7328,-0.7323,-0.7317,-0.727,-0.7261,-0.7258,-0.7248,-0.7233,-0.7232,-0.7231,-0.7231,-0.7253,-0.7254,0,0,0,0,0,0,-0.7457,-0.7447,-0.74,-0.7396,-0.7411,-0.7369,-0.7361,-0.7352,-0.7309,-0.7301,-0.7318,-0.7314,-0.7264,-0.726,-0.7256,-0.7274,-0.7232,-0.7231,-0.723,-0.7251,-0.7253,-0.7254,0,0,0,0,0,0,-0.7459,-0.7454,-0.7402,-0.742,-0.7412,-0.7369,-0.736,-0.7352,-0.7343,-0.7302,-0.7294,-0.7318,-0.7263,-0.7258,-0.7255,-0.7272,-0.723,-0.7229,-0.725,-0.7252,-0.7254,-0.7311,0,0,0,0,0,0,-0.7461,-0.7455,-0.746,-0.7421,-0.7412,-0.7402,-0.7361,-0.7352,-0.7341,-0.7336,-0.7299,-0.7292,-0.7262,-0.7258,-0.7254,-0.7269,-0.7228,-0.7248,-0.7251,-0.7253,-0.7308,-0.7315,-0.7321,0,0,0,0,0,-0.7464,-0.7479,-0.7461,-0.7455,-0.7417,-0.7403,-0.7398,-0.7362,-0.7343,-0.7349,-0.7322,-0.7293,-0.7271,-0.7258,-0.7254,-0.7268,-0.7247,-0.725,-0.7253,-0.7305,-0.7314,-0.7321,0,0,0,0,0,0,-0.7521,-0.7473,-0.7452,-0.7455,-0.7434,-0.7393,-0.7398,-0.7373,-0.7356,-0.7352,-0.7309,-0.7302,-0.7305,-0.7286,-0.7273,-0.7284,-0.7255,-0.7257,-0.7296,-0.7304,-0.731,-0.7315,-0.7227,0,0,0,0,0,-0.7534,-0.7526,-0.7484,-0.7491,-0.7481,-0.7442,-0.7434,-0.7409,-0.7385,-0.7376,-0.7349,-0.7328,-0.7316,-0.7309,-0.7295,-0.7305,-0.7297,-0.7313,-0.732,-0.7326,-0.7328,-0.7334,-0.7341,-0.7264,-0.7264,-0.7264,0,0,-0.7561,-0.7534,-0.7531,-0.7502,-0.7482,-0.7475,-0.7435,-0.7429,-0.7423,-0.7375,-0.7371,-0.7351,-0.7324,-0.7329,-0.7329,-0.7313,-0.7348,-0.733,-0.7334,-0.7334,-0.7337,-0.7345,-0.7351,-0.7266,-0.7266,-0.7265,0,0,-0.7607,-0.7585,-0.7588,-0.757,-0.7541,-0.7515,-0.7516,-0.7479,-0.7464,-0.746,-0.7424,-0.7417,-0.7398,-0.738,-0.7369,-0.7411,-0.7384,-0.7407,-0.7442,-0.7448,-0.7454,-0.7459,-0.7475,-0.7481,-0.741,-0.741,-0.741,0,-0.7644,-0.7631,-0.7593,-0.759,-0.7579,-0.7535,-0.7539,-0.7523,-0.7491,-0.7485,-0.7468,-0.7443,-0.7422,-0.7422,-0.7433,-0.7425,-0.7426,-0.7411,-0.7456,-0.7461,-0.7465,-0.748,-0.7486,-0.7413,-0.7413,-0.7413,-0.7412,0,-0.7679,-0.7671,-0.7678,-0.7648,-0.7638,-0.7638,-0.7602,-0.7596,-0.7572,-0.7549,-0.7546,-0.7519,-0.75,-0.7499,-0.7475,-0.7496,-0.7488,-0.7464,-0.7434,-0.7477,-0.749,-0.7495,-0.7418,-0.7417,-0.7416,-0.7415,0,0,-0.7758,-0.7709,-0.7712,-0.7699,-0.7664,-0.7658,-0.7657,-0.7639,-0.7635,-0.7616,-0.7615,-0.76,-0.7578,-0.7566,-0.754,-0.7545,-0.7581,-0.7521,-0.752,-0.7534,-0.7604,-0.7623,-0.7629,-0.7563,-0.7564,-0.7565,-0.7607,0,-0.7798,-0.7793,-0.776,-0.7765,-0.7758,-0.7717,-0.7717,-0.7697,-0.7675,-0.7667,-0.7643,-0.7634,-0.7605,-0.7598,-0.7601,-0.7576,-0.7595,-0.7573,-0.7563,-0.7563,-0.7571,-0.7636,-0.7655,-0.7695,-0.7612,-0.7612,-0.7613,0,-0.7844,-0.7827,-0.7832,-0.7799,-0.7794,-0.7794,-0.7776,-0.7768,-0.7745,-0.7729,-0.7716,-0.7688,-0.7686,-0.7658,-0.7655,-0.7641,-0.7635,-0.7623,-0.7624,-0.7621,-0.7591,-0.7636,-0.7707,-0.7714,-0.762,-0.762,-0.7619,0,-0.7902,-0.7881,-0.7881,-0.7871,-0.7832,-0.7834,-0.7818,-0.7793,-0.7785,-0.7769,-0.7763,-0.7747,-0.7739,-0.7728,-0.7697,-0.7679,-0.7699,-0.7667,-0.7686,-0.7687,-0.7692,-0.7692,-0.7764,-0.7688,-0.7688,-0.7688,-0.7688,0,-0.795,-0.7955,-0.7907,-0.7907,-0.7912,-0.7874,-0.788,-0.786,-0.7839,-0.7836,-0.78,-0.7797,-0.7756,-0.7749,-0.7725,-0.7728,-0.7724,-0.7712,-0.7705,-0.7715,-0.7717,-0.7711,-0.7707,-0.7689,-0.7689,-0.7689,-0.7688,0,-0.8016,-0.7984,-0.7982,-0.7946,-0.7937,-0.7942,-0.7911,-0.7911,-0.7888,-0.7884,-0.7881,-0.7845,-0.7836,-0.7803,-0.7786,-0.777,-0.778,-0.7767,-0.7788,-0.7784,-0.7805,-0.7804,-0.7875,-0.7883,-0.7802,-0.7803,-0.7804,0,-0.8049,-0.8052,-0.8016,-0.8011,-0.7997,-0.7989,-0.7981,-0.7945,-0.7937,-0.7912,-0.7915,-0.7903,-0.7891,-0.7878,-0.7851,-0.7838,-0.7825,-0.7851,-0.7823,-0.7833,-0.7826,-0.7827,-0.7827,-0.7857,-0.7858,-0.7859,-0.786,0,-0.8112,-0.8096,-0.8085,-0.8069,-0.806,-0.8045,-0.8029,-0.8027,-0.7987,-0.7981,-0.7971,-0.7962,-0.7945,-0.7933,-0.7916,-0.7901,-0.7874,-0.7869,-0.7873,-0.7883,-0.7895,-0.789,-0.7805,-0.7868,-0.7867,-0.7866,-0.7866,-0.7865,-0.8163,-0.8164,-0.8139,-0.8128,-0.8112,-0.8098,-0.8096,-0.8073,-0.8064,-0.8047,-0.8026,-0.8019,-0.7998,-0.7972,-0.7959,-0.7953,-0.7939,-0.7944,-0.7945,-0.7947,-0.7953,-0.7896,-0.795,-0.795,-0.7949,-0.7949,-0.7949,0,-0.8224,-0.8206,-0.8197,-0.8175,-0.8167,-0.8143,-0.8124,-0.8119,-0.8113,-0.8095,-0.8084,-0.8074,-0.8063,-0.8036,-0.8023,-0.8024,-0.8012,-0.8022,-0.8022,-0.8019,-0.7966,-0.7964,-0.8032,-0.8032,-0.8032,-0.8032,-0.8032,-0.8032,-0.8255,-0.8256,-0.8238,-0.8231,-0.8213,-0.8206,-0.8197,-0.8185,-0.817,-0.816,-0.8151,-0.8133,-0.8111,-0.8097,-0.8087,-0.8079,-0.8076,-0.8091,-0.8079,-0.803,-0.8022,-0.8015,-0.8013,-0.809,-0.809,-0.8133,-0.8133,-0.8133]},{"header":{"parameterUnit":"m.s-1","parameterCategory":1,"la1":30.2991,"la2":30.254,"lo1":-89.0895,"lo2":-89.0444,"dy":0.0017,"dx":0.0017,"nx":28,"ny":28,"refTime":"2025-06-22T03:00:00:Z","depth":0,"parameterNumber":3,"parameterNumberName":"V-component_of_WINDS"},"data":[0,0,0,0,0,0,0,0,0,0,0,0,0,0,0,0,0,0,0,0,0,0,0,0,0,0,0,0,0,0,0,0,0,0,0,0,0,0,0,0,0,0,0,0,0,0,0,0,0,0,0,0,0,0,0,0,0,0,2.561,2.5609,0,2.5596,2.5596,2.5596,2.5598,2.5598,2.5598,2.5598,2.5582,2.5581,2.558,0,0,0,0,0,0,0,0,0,0,0,0,0,2.5635,2.5635,2.561,2.5609,2.5609,2.5596,2.5596,2.5596,2.5598,2.5598,2.5598,2.5599,2.5582,2.5581,2.558,0,0,0,0,0,0,0,0,0,0,0,0,0,2.5623,2.5635,2.561,2.5609,2.5609,2.5596,2.5596,2.5596,2.5598,2.5598,2.5598,2.5599,2.5582,2.5581,2.558,2.5567,0,0,2.5577,2.5577,0,0,0,0,0,0,0,0,2.5624,2.5622,2.5609,2.5609,2.5609,2.5599,2.5599,2.5586,2.5598,2.5602,2.5598,2.5599,2.5587,2.5586,2.5582,2.5566,2.5565,2.5577,2.5577,2.5576,2.5576,0,0,0,0,0,0,0,2.5625,2.5623,2.5604,2.5609,2.5609,2.5608,2.5607,2.5596,2.5592,2.5601,2.5601,2.56,2.5587,2.5583,2.5582,2.5565,2.5577,2.5576,2.5576,2.5575,2.5538,2.5537,0,0,0,0,0,0,2.5626,2.5623,2.5605,2.5604,2.5617,2.5608,2.5606,2.5602,2.5593,2.5592,2.56,2.56,2.5585,2.5583,2.5581,2.5565,2.5576,2.5575,2.5575,2.5538,2.5538,2.5537,0,0,0,0,0,0,2.5627,2.5624,2.5605,2.5614,2.5611,2.5607,2.5602,2.5601,2.5597,2.5591,2.559,2.5597,2.5585,2.5583,2.5571,2.5565,2.5575,2.5574,2.5539,2.5538,2.5537,2.5533,0,0,0,0,0,0,2.5627,2.5624,2.562,2.5613,2.5611,2.5595,2.5601,2.5601,2.5596,2.5596,2.5588,2.5587,2.5585,2.5572,2.557,2.5564,2.5573,2.5539,2.5538,2.5538,2.5534,2.5532,2.5531,0,0,0,0,0,2.5628,2.5618,2.562,2.5617,2.5605,2.5595,2.5593,2.5592,2.5596,2.5591,2.5587,2.5588,2.5566,2.5571,2.5568,2.5562,2.5539,2.5539,2.5538,2.5534,2.5533,2.5531,0,0,0,0,0,0,2.5623,2.5618,2.5619,2.5607,2.5602,2.5595,2.5589,2.559,2.5583,2.5583,2.5581,2.5579,2.5567,2.5563,2.5569,2.5548,2.5553,2.5552,2.5551,2.555,2.5549,2.555,2.5572,0,0,0,0,0,2.5621,2.5614,2.5609,2.5599,2.5596,2.5593,2.5589,2.5588,2.5582,2.558,2.5575,2.5569,2.556,2.5555,2.5547,2.5533,2.5531,2.5527,2.5526,2.5525,2.5524,2.5516,2.5515,2.5534,2.5534,2.5534,0,0,2.5615,2.5612,2.5607,2.5598,2.5594,2.5586,2.5591,2.5583,2.5577,2.5578,2.5567,2.5563,2.5556,2.5543,2.5537,2.5539,2.5518,2.5524,2.5523,2.5522,2.5515,2.5514,2.5512,2.5534,2.5534,2.5534,0,0,2.5602,2.5599,2.559,2.5586,2.558,2.5578,2.5576,2.557,2.5568,2.5557,2.5558,2.555,2.5536,2.5531,2.5527,2.5512,2.5513,2.5509,2.5503,2.5496,2.5494,2.5493,2.5488,2.5486,2.5508,2.5508,2.5508,0,2.5596,2.5585,2.5585,2.5577,2.5573,2.5575,2.5566,2.5562,2.5553,2.555,2.5552,2.5535,2.553,2.5517,2.5513,2.5509,2.5507,2.551,2.5495,2.5493,2.5492,2.5487,2.5485,2.5508,2.5508,2.5508,2.5508,0,2.5578,2.5571,2.5565,2.5558,2.5553,2.5544,2.5542,2.5537,2.5537,2.5535,2.5523,2.5518,2.5509,2.5505,2.5505,2.5492,2.5493,2.5495,2.55,2.549,2.5485,2.5483,2.5507,2.5507,2.5508,2.5508,0,0,2.5561,2.5554,2.5552,2.5549,2.5543,2.5537,2.5528,2.5521,2.5516,2.551,2.5503,2.5491,2.5494,2.5489,2.5487,2.5481,2.547,2.5484,2.5484,2.5482,2.5456,2.5454,2.5452,2.5471,2.5471,2.547,2.5456,0,2.5547,2.5533,2.5533,2.5519,2.5513,2.5515,2.5507,2.5502,2.55,2.5493,2.549,2.5482,2.5486,2.5483,2.5477,2.5473,2.5465,2.5474,2.5463,2.5463,2.5465,2.545,2.5448,2.5435,2.5455,2.5454,2.5454,0,2.5529,2.5523,2.551,2.5505,2.5503,2.5496,2.5489,2.5483,2.5477,2.5476,2.5471,2.5471,2.5462,2.5467,2.5454,2.546,2.5456,2.5454,2.5453,2.5452,2.5458,2.5448,2.5431,2.5429,2.5451,2.5451,2.5452,0,2.5517,2.5507,2.5498,2.5495,2.5489,2.5485,2.5482,2.5477,2.5472,2.5466,2.5463,2.5456,2.5452,2.5446,2.5443,2.5447,2.5431,2.5436,2.5429,2.5429,2.5425,2.5425,2.5407,2.5422,2.5422,2.5422,2.5422,0,2.5502,2.5493,2.5493,2.5487,2.5477,2.5477,2.5468,2.5465,2.5461,2.5454,2.5455,2.5448,2.5446,2.5439,2.5437,2.5427,2.5425,2.5423,2.5423,2.5423,2.5423,2.542,2.5421,2.5422,2.5422,2.5422,2.5422,0,2.5487,2.5487,2.5477,2.5473,2.5471,2.5465,2.5461,2.5455,2.5453,2.5445,2.5443,2.5439,2.5431,2.5429,2.5419,2.5417,2.5406,2.5406,2.5408,2.5408,2.5401,2.5402,2.538,2.5377,2.5394,2.5394,2.5394,0,2.5478,2.5471,2.5467,2.5463,2.5461,2.5454,2.545,2.545,2.5445,2.5439,2.5434,2.5426,2.542,2.5407,2.5403,2.5395,2.5396,2.5389,2.5394,2.5395,2.5396,2.5396,2.5395,2.5387,2.5387,2.5387,2.5387,0,2.546,2.546,2.5455,2.5449,2.5445,2.544,2.5436,2.5432,2.5431,2.5426,2.5418,2.5413,2.5404,2.5396,2.5389,2.5385,2.5386,2.5385,2.5383,2.5384,2.5385,2.5384,2.5405,2.5386,2.5386,2.5386,2.5386,2.5386,2.5448,2.5443,2.5439,2.5433,2.543,2.5426,2.5421,2.5419,2.5412,2.5405,2.5405,2.5397,2.5392,2.5382,2.5378,2.5371,2.5373,2.537,2.5369,2.5369,2.5368,2.5386,2.5369,2.537,2.537,2.537,2.537,0,2.5431,2.5429,2.5423,2.5418,2.5413,2.5415,2.541,2.5406,2.5399,2.5395,2.5389,2.538,2.5373,2.5369,2.5362,2.5357,2.5357,2.5355,2.5355,2.5354,2.5367,2.5369,2.5355,2.5355,2.5355,2.5355,2.5355,2.5355,2.5421,2.5413,2.5413,2.5402,2.54,2.5393,2.539,2.5386,2.5383,2.5374,2.5368,2.5366,2.5362,2.5354,2.5347,2.5346,2.5343,2.5341,2.534,2.5352,2.5353,2.5355,2.5357,2.5341,2.5341,2.5329,2.5328,2.5328]}]]